NY5V Weather Reports


time (UTC)temp
F
wind
direction
speed
knots
gust
knots
rain 1hr
in
rain 24hr
in
rain mn
in
humidity
%
barometer
mb
20260509201843 86 47 1.7 1.7 0.00 0.00 0.00 63 1009.2
20260509200841 88 72 0.9 1.7 0.00 0.00 0.00 62 1009.2
20260509195839 86 39 1.7 1.7 0.00 0.00 0.00 63 1009.2
20260509194839 87 46 0.0 0.0 0.00 0.00 0.00 62 1009.4
20260509193838 86 65 0.0 0.0 0.00 0.00 0.00 63 1009.6
20260509192834 85 49 0.0 0.0 0.00 0.00 0.00 66 1009.7
20260509191831 84 50 0.9 0.9 0.00 0.00 0.00 67 1009.9
20260509190829 85 48 0.0 0.0 0.00 0.00 0.00 66 1009.9
20260509185824 84 53 0.0 0.0 0.00 0.00 0.00 69 1009.8
20260509184824 84 47 0.0 0.0 0.00 0.00 0.00 70 1010.1
20260509183823 84 36 0.9 0.9 0.00 0.00 0.00 69 1010.1
20260509182820 83 45 0.0 0.9 0.00 0.00 0.00 70 1010.1
20260509181821 85 41 0.0 0.9 0.00 0.00 0.00 69 1010.2
20260509180821 85 40 0.0 0.0 0.00 0.00 0.00 70 1010.3
20260509175819 84 353 1.7 1.7 0.00 0.00 0.00 72 1010.6
20260509174817 81 30 0.0 0.9 0.00 0.00 0.00 76 1010.5
20260509173815 82 32 0.9 1.7 0.00 0.00 0.00 76 1010.9
20260509172813 80 74 1.7 1.7 0.00 0.00 0.00 77 1010.8
20260509171812 80 11 1.7 2.6 0.00 0.00 0.00 79 1010.8
20260509170810 81 2 1.7 2.6 0.00 0.00 0.00 77 1010.9
20260509165806 81 29 0.9 0.9 0.00 0.00 0.00 79 1010.9
20260509164802 80 48 0.0 0.0 0.00 0.00 0.00 79 1011.0
20260509163801 82 37 0.9 0.9 0.00 0.00 0.00 76 1010.8
20260509162757 81 344 2.6 2.6 0.00 0.00 0.00 77 1010.8
20260509161753 80 49 0.0 0.0 0.00 0.00 0.00 79 1010.7
20260509160750 80 39 2.6 3.5 0.00 0.00 0.00 80 1010.8
20260509155748 80 12 0.9 1.7 0.00 0.00 0.00 82 1011.0
20260509154747 78 38 0.9 0.9 0.00 0.00 0.00 85 1010.8
20260509153747 77 45 0.0 0.0 0.00 0.00 0.00 87 1010.7
20260509152745 76 47 0.0 0.0 0.00 0.00 0.00 89 1010.8
20260509151745 75 39 1.7 1.7 0.00 0.00 0.00 92 1010.5
20260509150739 74 39 0.9 0.9 0.00 0.00 0.00 96 1010.9
20260509145734 73 7 1.7 1.7 0.00 0.00 0.00 96 1010.9
20260509144731 73 37 0.9 0.9 0.00 0.00 0.00 96 1010.9
20260509143731 73 41 0.0 0.0 0.00 0.00 0.00 95 1011.0
20260509142730 73 45 0.0 0.0 0.00 0.00 0.00 95 1011.1
20260509141727 73 47 0.0 0.0 0.00 0.00 0.00 95 1011.2
20260509140727 73 47 0.0 0.0 0.00 0.00 0.00 95 1011.2
20260509135722 73 50 0.0 0.0 0.00 0.00 0.00 95 1011.1
20260509134722 72 51 0.0 0.0 0.00 0.00 0.00 96 1011.0
20260509133717 72 47 0.0 0.0 0.00 0.00 0.00 97 1011.0
20260509132712 72 48 0.0 0.0 0.00 0.00 0.00 98 1010.8
20260509131712 71 36 0.9 0.9 0.00 0.00 0.00 98 1010.9
20260509130711 71 44 1.7 1.7 0.00 0.00 0.00 99 1010.7
20260509125710 71 46 0.0 0.0 0.00 0.00 0.00 99 1011.0
20260509124709 71 44 0.9 0.9 0.00 0.00 0.00 99 1011.1
20260509123704 71 334 1.7 1.7 0.00 0.00 0.00 99 1010.9
20260509122702 71 43 0.0 0.9 0.00 0.00 0.00 99 1010.8
20260509121701 70 44 0.0 0.0 0.00 0.00 0.00 99 1010.4
20260509120657 70 33 0.0 0.9 0.00 0.00 0.00 99 1010.2
20260509115652 70 18 1.7 1.7 0.00 0.00 0.00 99 1010.3
20260509114648 70 45 0.0 0.9 0.00 0.00 0.00 99 1010.3
20260509113644 70 38 1.7 1.7 0.00 0.00 0.00 99 1010.2
20260509112643 70 45 0.0 0.9 0.00 0.00 0.00 99 1009.7
20260509111638 70 50 1.7 2.6 0.00 0.00 0.00 99 1009.7
20260509110637 70 37 0.9 0.9 0.00 0.00 0.00 99 1009.3
20260509105633 70 22 1.7 1.7 0.00 0.00 0.00 99 1009.0
20260509104633 70 48 0.9 1.7 0.00 0.00 0.00 99 1009.1
20260509103627 70 51 0.9 0.9 0.00 0.00 0.00 99 1009.4
20260509102622 69 33 2.6 3.5 0.00 0.00 0.00 99 1009.4
20260509101620 69 35 0.9 0.9 0.00 0.00 0.00 99 1009.5
20260509100620 69 35 0.9 0.9 0.00 0.00 0.00 99 1009.7
20260509095620 69 40 0.9 0.9 0.00 0.00 0.00 99 1009.6
20260509094619 69 1 2.6 2.6 0.00 0.00 0.00 98 1009.9
20260509093615 69 41 0.9 0.9 0.00 0.00 0.00 98 1010.0
20260509092615 69 45 0.0 0.9 0.00 0.00 0.00 98 1009.9
20260509091612 69 47 0.0 0.0 0.00 0.00 0.00 98 1010.1
20260509090611 69 48 0.0 0.0 0.00 0.00 0.00 97 1009.8
20260509085606 70 29 0.9 0.9 0.00 0.00 0.00 97 1010.0
20260509084605 70 46 0.9 0.9 0.00 0.00 0.00 97 1009.8
20260509083605 70 47 0.0 0.0 0.00 0.00 0.00 97 1009.8
20260509082605 70 46 0.0 0.0 0.00 0.00 0.00 96 1010.2
20260509081604 70 23 0.0 0.9 0.00 0.00 0.00 96 1010.5
20260509080559 70 22 2.6 3.5 0.00 0.00 0.00 95 1010.2
20260509075554 70 33 0.0 0.9 0.00 0.00 0.00 95 1010.7
20260509074555 70 46 0.0 0.0 0.00 0.00 0.00 95 1010.9
20260509073554 70 52 0.0 0.0 0.00 0.00 0.00 95 1011.1
20260509072552 70 48 0.0 0.0 0.00 0.00 0.00 95 1010.9
20260509071552 70 51 0.0 0.0 0.00 0.00 0.00 95 1011.0
20260509070547 70 55 0.0 0.0 0.00 0.00 0.00 94 1010.9
20260509065544 70 49 0.0 0.0 0.00 0.00 0.00 94 1010.9
20260509064544 70 48 0.0 0.0 0.00 0.00 0.00 94 1010.8
20260509063543 70 53 0.0 0.9 0.00 0.00 0.00 95 1010.4
20260509062538 70 46 0.9 0.9 0.00 0.00 0.00 94 1010.8
20260509061532 70 54 0.0 0.0 0.00 0.00 0.00 93 1011.1
20260509060527 71 46 0.0 0.9 0.00 0.00 0.00 92 1011.1
20260509055524 71 47 0.0 0.0 0.00 0.00 0.00 91 1011.6
20260509054523 71 49 0.0 0.0 0.00 0.00 0.00 91 1011.7
20260509053519 71 48 0.0 0.0 0.00 0.00 0.00 91 1011.9
20260509052519 71 50 0.0 0.0 0.00 0.00 0.00 91 1011.9
20260509051515 71 55 0.0 0.0 0.00 0.00 0.00 91 1011.6
20260509050514 71 41 0.0 0.9 0.00 0.00 0.00 90 1011.5
20260509045514 71 49 0.0 0.0 0.00 0.00 0.00 90 1011.4
20260509044509 71 33 0.0 0.9 0.00 0.00 0.00 90 1011.1
20260509043508 71 44 0.0 0.9 0.00 0.00 0.00 90 1011.0
20260509042506 72 46 0.0 0.0 0.00 0.00 0.00 90 1011.1
20260509041505 72 36 0.9 0.9 0.00 0.00 0.00 89 1010.8
20260509040501 72 51 0.0 0.0 0.00 0.00 0.00 89 1010.7
20260509035500 72 50 0.0 0.0 0.00 0.00 0.00 89 1010.5
20260509034455 72 40 0.9 0.9 0.00 0.00 0.00 88 1010.5
20260509033454 72 40 0.0 0.9 0.00 0.00 0.00 88 1010.6
20260509032454 72 47 0.0 0.0 0.00 0.00 0.00 87 1010.8
20260509031455 72 54 0.0 0.0 0.00 0.00 0.00 87 1010.5
20260509030450 72 46 0.0 0.0 0.00 0.00 0.00 86 1010.4
20260509025448 72 52 0.0 0.0 0.00 0.00 0.00 86 1010.2
20260509024446 72 45 0.0 0.0 0.00 0.00 0.00 85 1009.9
20260509023446 72 46 0.0 0.0 0.00 0.00 0.00 85 1010.0
20260509022445 73 46 0.0 0.0 0.00 0.00 0.00 84 1009.6
20260509021445 73 47 0.0 0.0 0.00 0.00 0.00 84 1009.4
20260509020441 73 46 0.0 0.0 0.00 0.00 0.00 83 1009.5
20260509015437 73 55 0.0 0.0 0.00 0.00 0.00 83 1009.5
20260509014435 73 46 0.0 0.0 0.00 0.00 0.00 82 1009.6
20260509013434 73 47 0.0 0.0 0.00 0.00 0.00 82 1009.2
20260509012432 73 42 0.0 0.9 0.00 0.00 0.00 81 1009.1
20260509011427 74 46 0.0 0.0 0.00 0.00 0.00 80 1009.2
20260509010422 74 358 2.6 2.6 0.00 0.00 0.00 79 1009.0
20260509005423 74 28 0.9 0.9 0.00 0.00 0.00 80 1008.9
20260509004419 74 357 0.9 1.7 0.00 0.00 0.00 79 1008.7
20260509003414 75 45 0.0 0.0 0.00 0.00 0.00 78 1008.9
20260509002409 75 20 0.9 0.9 0.00 0.00 0.00 77 1008.9
20260509001408 76 48 0.0 0.0 0.00 0.00 0.00 76 1008.9
20260509000403 76 49 0.9 0.9 0.00 0.00 0.00 76 1008.8
20260508235402 76 27 1.7 2.6 0.00 0.00 0.00 73 1008.7
20260508234401 77 36 1.7 1.7 0.00 0.00 0.00 71 1008.7
20260508233359 77 80 1.7 2.6 0.00 0.00 0.00 72 1008.4
20260508232358 77 351 0.9 1.7 0.00 0.00 0.00 72 1008.8
20260508231352 77 53 0.0 0.0 0.00 0.00 0.00 72 1008.8
20260508230351 77 24 0.9 1.7 0.00 0.00 0.00 71 1009.1
20260508225351 77 31 0.0 0.0 0.00 0.00 0.00 71 1009.6
20260508224347 77 55 0.0 0.0 0.00 0.00 0.00 70 1010.2
20260508223341 77 54 0.0 0.0 0.00 0.00 0.00 68 1009.8
20260508222336 78 43 0.0 0.9 0.00 0.00 0.00 69 1009.9
20260508221334 77 54 0.0 0.0 0.00 0.00 0.00 69 1009.7
20260508220332 78 328 1.7 2.6 0.00 0.00 0.00 65 1009.9
20260508215332 78 45 1.7 1.7 0.00 0.00 0.00 66 1009.8
20260508214332 78 49 0.0 0.0 0.00 0.00 0.00 65 1010.3
20260508213331 78 50 0.0 0.9 0.00 0.00 0.00 65 1010.2
20260508212329 79 52 0.0 0.0 0.00 0.00 0.00 64 1010.0
20260508211326 80 75 0.0 0.0 0.00 0.00 0.00 65 1010.0
20260508210321 79 35 0.0 0.0 0.00 0.00 0.00 65 1009.9
20260508205320 77 49 0.0 0.0 0.00 0.00 0.00 69 1010.1
20260508204319 78 56 0.0 0.0 0.00 0.00 0.00 65 1010.1
20260508203317 78 53 0.0 0.9 0.00 0.00 0.00 64 1009.7
20260508202316 78 45 0.9 0.9 0.00 0.00 0.00 62 1010.2